Flag for U.S.A. Weather past 2 weeks in Milwaukee, Wisconsin, U.S.A.

Now
34 °F

Clear.


Feels Like: 31 °F
Forecast: 32 / 54 °F
Wind: 3 mph from East

Location: Milwaukee / Timmerman


UV Index: 5 (Moderate)

Visibility: 10 mi


Pressure: 30.40 "Hg

Humidity: 75%

Dew point: 27 °F

Location of MilwaukeeLocation

Historic Weather in Milwaukee

°F

Milwaukee temperature yesterday

Maximum temperature yesterday: 45 °F (at 11:45 AM)
Minimum temperature yesterday: 34 °F (at 4:55 AM)
Average temperature yesterday: 37 °F

Past Weeks' High & Low Weather Summary

 TemperatureHumidityPressure
High64 °F (Apr 11, 12:45 PM)100% (Apr 4, 9:45 AM)30.40 "Hg (Apr 4, 9:45 AM)
Low21 °F (Apr 15, 5:35 AM)15% (Apr 11, 12:45 PM)29.41 "Hg (Apr 4, 9:45 AM)
Average40 °F66%29.93 "Hg
* Reported Apr 3 11:15 PM — Apr 18 11:15 PM, Milwaukee, Weather by CustomWeather, © 2014

Note: Actual official high and low records may vary slightly from our data, if they occured in-between our weather recording intervals... More about our weather records

Advertising

Historic Weather Conditions — Data for Previous 24 hours

 ConditionsComfort  
Time TempWeatherWind HumidityBarometerVisibility
11:15 PM
Apr 18
34 °FClear.3 mph75%30.40 "Hg10 mi
10:55 PM34 °FClear.3 mph75%30.40 "Hg10 mi
10:35 PM34 °FClear.5 mph75%30.40 "Hg10 mi
9:55 PM34 °FClear.6 mph75%30.39 "Hg10 mi
9:35 PM34 °FClear.5 mph75%30.39 "Hg10 mi
9:15 PM34 °FClear.5 mph75%30.40 "Hg10 mi
8:45 PM34 °FClear.5 mph70%30.39 "Hg10 mi
7:45 PM36 °FSunny.5 mph65%30.40 "Hg10 mi
5:45 PM39 °FSunny.8 mph61%30.38 "Hg10 mi
4:45 PM43 °FSunny.9 mph57%30.37 "Hg10 mi
3:45 PM43 °FSunny.9 mph57%30.36 "Hg10 mi
2:45 PM45 °FSunny.7 mph53%30.36 "Hg10 mi
1:45 PM45 °FSunny.9 mph53%30.37 "Hg10 mi
12:45 PM45 °FScattered clouds.7 mph53%30.36 "Hg10 mi
11:45 AM45 °FPartly sunny.7 mph57%30.37 "Hg10 mi
10:45 AM43 °FOvercast.6 mph66%30.37 "Hg10 mi
9:45 AM41 °FOvercast.6 mph66%30.36 "Hg10 mi
8:45 AM39 °FScattered clouds.9 mph70%30.35 "Hg10 mi
7:45 AM37 °FOvercast.7 mph75%30.34 "Hg10 mi
6:45 AM36 °FPassing clouds.6 mph81%30.33 "Hg10 mi
6:35 AM34 °FPassing clouds.6 mph87%30.32 "Hg10 mi
6:15 AM34 °FPassing clouds.7 mph87%30.32 "Hg10 mi
5:55 AM34 °FPassing clouds.6 mph87%30.31 "Hg10 mi
5:35 AM34 °FPassing clouds.6 mph87%30.31 "Hg10 mi
5:15 AM34 °FPassing clouds.5 mph87%30.31 "Hg10 mi
4:55 AM34 °FPassing clouds.6 mph87%30.30 "Hg10 mi
4:35 AM36 °FPassing clouds.5 mph81%30.30 "Hg10 mi
4:15 AM36 °FPassing clouds.5 mph87%30.30 "Hg10 mi
3:55 AM36 °FOvercast.5 mph87%30.29 "Hg10 mi
3:35 AM36 °FOvercast.3 mph87%30.29 "Hg10 mi
3:15 AM36 °FPassing clouds.3 mph87%30.29 "Hg10 mi
2:55 AM36 °FPassing clouds.3 mph87%30.29 "Hg10 mi
2:35 AM36 °FPassing clouds.No wind87%30.28 "Hg10 mi
2:15 AM36 °FPassing clouds.No wind87%30.29 "Hg10 mi
1:55 AM36 °FClear.3 mph87%30.28 "Hg10 mi
1:35 AM37 °FPassing clouds.3 mph81%30.28 "Hg10 mi
1:15 AM39 °FPassing clouds.7 mph75%30.28 "Hg10 mi
12:55 AM39 °FPassing clouds.10 mph75%30.28 "Hg10 mi
12:35 AM41 °FPassing clouds.7 mph70%30.28 "Hg10 mi
12:15 AM43 °FOvercast.9 mph71%30.28 "Hg10 mi
Weather by CustomWeather, © 2014

See weather overview